| time (UTC) | temp C | wind direction | speed KPH | gust KPH | rain 1hr cm | rain 24hr cm | rain mn cm | humidity % | barometer mb |
| 20260904054014 | 12 | 225 | 0.0 | 0.0 | 0.00 | 0.00 | 0.00 | 59 | 1018.6 |
| 20260904053113 | 12 | 225 | 0.0 | 0.0 | 0.00 | 0.00 | 0.00 | 59 | 1018.5 |
| 20260904052113 | 12 | 225 | 0.0 | 0.0 | 0.00 | 0.00 | 0.00 | 59 | 1018.7 |
| 20260904051114 | 12 | 180 | 0.0 | 0.0 | 0.00 | 0.00 | 0.00 | 60 | 1018.8 |
| 20260904050213 | 11 | 180 | 0.0 | 0.0 | 0.00 | 0.00 | 0.00 | 60 | 1018.8 |
| 20260904045215 | 11 | 180 | 0.0 | 0.0 | 0.00 | 0.00 | 0.00 | 59 | 1018.8 |
| 20260904044213 | 11 | 180 | 0.0 | 0.0 | 0.00 | 0.00 | 0.00 | 61 | 1018.7 |
| 20260904042214 | 11 | 157 | 0.0 | 0.0 | 0.00 | 0.00 | 0.00 | 61 | 1018.7 |
| 20260904041213 | 11 | 157 | 0.0 | 0.0 | 0.00 | 0.00 | 0.00 | 61 | 1018.6 |
| 20260904040213 | 11 | 157 | 0.0 | 0.0 | 0.00 | 0.00 | 0.00 | 60 | 1018.5 |
| 20260904035214 | 12 | 157 | 0.0 | 0.0 | 0.00 | 0.00 | 0.00 | 59 | 1018.5 |
| 20260904034213 | 12 | 157 | 0.0 | 0.0 | 0.00 | 0.00 | 0.00 | 60 | 1018.5 |
| 20260904032214 | 12 | 157 | 0.0 | 3.2 | 0.00 | 0.00 | 0.00 | 60 | 1018.4 |
| 20260904030314 | 12 | 157 | 0.0 | 0.0 | 0.00 | 0.00 | 0.00 | 59 | 1018.5 |
| 20260904025313 | 12 | 157 | 0.0 | 0.0 | 0.00 | 0.00 | 0.00 | 60 | 1018.4 |
| 20260904024314 | 12 | 157 | 0.0 | 0.0 | 0.00 | 0.00 | 0.00 | 60 | 1018.5 |
| 20260904023314 | 13 | 158 | 1.6 | 4.8 | 0.00 | 0.00 | 0.00 | 60 | 1018.3 |
| 20260904022412 | 13 | 157 | 0.0 | 3.2 | 0.00 | 0.00 | 0.00 | 58 | 1018.5 |
| 20260904021430 | 13 | 194 | 0.0 | 4.8 | 0.00 | 0.00 | 0.00 | 58 | 1018.6 |
| 20260904015515 | 13 | 157 | 0.0 | 1.6 | 0.00 | 0.00 | 0.00 | 60 | 1018.7 |
| 20260904014513 | 13 | 217 | 1.6 | 4.8 | 0.00 | 0.00 | 0.00 | 59 | 1018.6 |
| 20260904013515 | 14 | 165 | 0.0 | 3.2 | 0.00 | 0.00 | 0.00 | 59 | 1018.6 |
| 20260904011514 | 14 | 174 | 0.0 | 4.8 | 0.00 | 0.00 | 0.00 | 57 | 1018.7 |
| 20260904010514 | 14 | 169 | 0.0 | 1.6 | 0.00 | 0.00 | 0.00 | 58 | 1018.8 |
| 20260904005529 | 14 | 225 | 0.0 | 1.6 | 0.00 | 0.00 | 0.00 | 59 | 1018.8 |
| 20260904004513 | 15 | 211 | 0.0 | 0.0 | 0.00 | 0.00 | 0.00 | 58 | 1018.8 |
| 20260904003528 | 15 | 165 | 3.2 | 6.4 | 0.00 | 0.00 | 0.00 | 57 | 1018.9 |
| 20260904002613 | 15 | 214 | 4.8 | 8.0 | 0.00 | 0.00 | 0.00 | 55 | 1019.0 |
| 20260904001617 | 15 | 161 | 3.2 | 6.4 | 0.00 | 0.00 | 0.00 | 54 | 1018.9 |
| 20260904000614 | 15 | 180 | 0.0 | 1.6 | 0.00 | 0.00 | 0.00 | 54 | 1019.0 |
| 20260903235613 | 16 | 157 | 1.6 | 4.8 | 0.00 | 0.00 | 0.00 | 55 | 1019.1 |
| 20260903233716 | 16 | 224 | 0.0 | 0.0 | 0.00 | 0.00 | 0.00 | 53 | 1019.3 |
| 20260903232813 | 16 | 176 | 4.8 | 9.7 | 0.00 | 0.00 | 0.00 | 53 | 1019.3 |
| 20260903231814 | 16 | 258 | 1.6 | 4.8 | 0.00 | 0.00 | 0.00 | 53 | 1019.3 |
| 20260903230829 | 16 | 196 | 6.4 | 8.0 | 0.00 | 0.00 | 0.00 | 50 | 1019.4 |
| 20260903225917 | 16 | 230 | 3.2 | 6.4 | 0.00 | 0.00 | 0.00 | 49 | 1019.4 |
| 20260903224915 | 17 | 196 | 1.6 | 3.2 | 0.00 | 0.00 | 0.00 | 49 | 1019.5 |
| 20260903223914 | 17 | 225 | 0.0 | 3.2 | 0.00 | 0.00 | 0.00 | 49 | 1019.5 |
| 20260903223013 | 17 | 168 | 6.4 | 11.3 | 0.00 | 0.00 | 0.00 | 49 | 1019.5 |
| 20260903222013 | 17 | 173 | 6.4 | 11.3 | 0.00 | 0.00 | 0.00 | 48 | 1019.5 |
| 20260903221013 | 17 | 154 | 4.8 | 9.7 | 0.00 | 0.00 | 0.00 | 48 | 1019.5 |
| 20260903220013 | 17 | 189 | 1.6 | 6.4 | 0.00 | 0.00 | 0.00 | 49 | 1019.6 |
| 20260903215016 | 17 | 222 | 6.4 | 11.3 | 0.00 | 0.00 | 0.00 | 48 | 1019.7 |
| 20260903214015 | 17 | 169 | 3.2 | 6.4 | 0.00 | 0.00 | 0.00 | 47 | 1019.5 |
| 20260903213015 | 17 | 235 | 1.6 | 6.4 | 0.00 | 0.00 | 0.00 | 48 | 1019.6 |
| 20260903212013 | 17 | 282 | 1.6 | 6.4 | 0.00 | 0.00 | 0.00 | 48 | 1019.5 |
| 20260903210113 | 17 | 181 | 1.6 | 4.8 | 0.00 | 0.00 | 0.00 | 47 | 1019.7 |
| 20260903205212 | 17 | 197 | 4.8 | 8.0 | 0.00 | 0.00 | 0.00 | 47 | 1019.7 |
| 20260903204214 | 17 | 177 | 3.2 | 6.4 | 0.00 | 0.00 | 0.00 | 48 | 1019.9 |
| 20260903202314 | 17 | 152 | 3.2 | 8.0 | 0.00 | 0.00 | 0.00 | 45 | 1019.9 |
| 20260903200312 | 17 | 180 | 0.0 | 0.0 | 0.00 | 0.00 | 0.00 | 44 | 1019.9 |
| 20260903195315 | 17 | 197 | 1.6 | 8.0 | 0.00 | 0.00 | 0.00 | 42 | 1020.3 |
| 20260903194313 | 17 | 181 | 1.6 | 3.2 | 0.00 | 0.00 | 0.00 | 40 | 1020.2 |
| 20260903192316 | 18 | 168 | 3.2 | 6.4 | 0.00 | 0.00 | 0.00 | 37 | 1020.4 |
| 20260903191413 | 18 | 160 | 1.6 | 3.2 | 0.00 | 0.00 | 0.00 | 36 | 1020.4 |
| 20260903190415 | 18 | 162 | 8.0 | 11.3 | 0.00 | 0.00 | 0.00 | 34 | 1020.6 |
| 20260903185414 | 17 | 135 | 3.2 | 4.8 | 0.00 | 0.00 | 0.00 | 32 | 1020.7 |
| 20260903184413 | 17 | 149 | 4.8 | 8.0 | 0.00 | 0.00 | 0.00 | 33 | 1020.7 |
| 20260903183513 | 18 | 179 | 8.0 | 14.5 | 0.00 | 0.00 | 0.00 | 32 | 1020.7 |
| 20260903182513 | 18 | 220 | 1.6 | 4.8 | 0.00 | 0.00 | 0.00 | 33 | 1020.8 |
| 20260903181516 | 17 | 246 | 4.8 | 6.4 | 0.00 | 0.00 | 0.00 | 32 | 1020.9 |
| 20260903180517 | 17 | 214 | 3.2 | 8.0 | 0.00 | 0.00 | 0.00 | 35 | 1020.9 |
| 20260903175614 | 16 | 221 | 3.2 | 4.8 | 0.00 | 0.00 | 0.00 | 34 | 1020.9 |
| 20260903174613 | 15 | 165 | 1.6 | 4.8 | 0.00 | 0.00 | 0.00 | 36 | 1021.0 |
| 20260903173712 | 15 | 151 | 1.6 | 8.0 | 0.00 | 0.00 | 0.00 | 38 | 1020.9 |
| 20260903172811 | 15 | 240 | 3.2 | 6.4 | 0.00 | 0.00 | 0.00 | 38 | 1021.1 |
| 20260903164914 | 14 | 205 | 1.6 | 6.4 | 0.00 | 0.00 | 0.00 | 45 | 1021.0 |
| 20260903163914 | 15 | 224 | 1.6 | 4.8 | 0.00 | 0.00 | 0.00 | 44 | 1021.2 |
| 20260903163011 | 14 | 174 | 3.2 | 6.4 | 0.00 | 0.00 | 0.00 | 45 | 1021.2 |
| 20260903162014 | 14 | 156 | 4.8 | 8.0 | 0.00 | 0.00 | 0.00 | 48 | 1021.3 |
| 20260903161014 | 14 | 178 | 0.0 | 3.2 | 0.00 | 0.00 | 0.00 | 51 | 1021.1 |
| 20260903160113 | 13 | 247 | 3.2 | 6.4 | 0.00 | 0.00 | 0.00 | 53 | 1021.2 |
| 20260903155114 | 12 | 167 | 0.0 | 0.0 | 0.00 | 0.00 | 0.00 | 59 | 1021.3 |
| 20260903154115 | 11 | 180 | 0.0 | 0.0 | 0.00 | 0.00 | 0.00 | 63 | 1021.3 |
| 20260903151213 | 8 | 180 | 0.0 | 0.0 | 0.00 | 0.00 | 0.00 | 70 | 1021.1 |
| 20260903150214 | 8 | 247 | 0.0 | 0.0 | 0.00 | 0.00 | 0.00 | 71 | 1021.0 |
| 20260903145212 | 8 | 247 | 0.0 | 0.0 | 0.00 | 0.00 | 0.00 | 71 | 1021.1 |
| 20260903143214 | 7 | 247 | 0.0 | 0.0 | 0.00 | 0.00 | 0.00 | 72 | 1020.9 |
| 20260903142216 | 7 | 247 | 0.0 | 0.0 | 0.00 | 0.00 | 0.00 | 73 | 1020.8 |
| 20260903141214 | 6 | 247 | 0.0 | 0.0 | 0.00 | 0.00 | 0.00 | 73 | 1020.9 |
| 20260903135218 | 7 | 247 | 0.0 | 0.0 | 0.00 | 0.00 | 0.00 | 71 | 1020.7 |
| 20260903134317 | 7 | 247 | 0.0 | 0.0 | 0.00 | 0.00 | 0.00 | 69 | 1020.7 |
| 20260903133317 | 7 | 247 | 0.0 | 0.0 | 0.00 | 0.00 | 0.00 | 69 | 1020.7 |
| 20260903132317 | 7 | 180 | 0.0 | 0.0 | 0.00 | 0.00 | 0.00 | 70 | 1020.6 |
| 20260903131319 | 7 | 180 | 0.0 | 0.0 | 0.00 | 0.00 | 0.00 | 71 | 1020.6 |
| 20260903130320 | 7 | 180 | 0.0 | 0.0 | 0.00 | 0.00 | 0.00 | 72 | 1020.7 |
| 20260903125418 | 7 | 180 | 0.0 | 0.0 | 0.00 | 0.00 | 0.00 | 71 | 1020.7 |
| 20260903124418 | 7 | 180 | 0.0 | 0.0 | 0.00 | 0.00 | 0.00 | 71 | 1020.9 |
| 20260903122418 | 7 | 180 | 0.0 | 0.0 | 0.00 | 0.00 | 0.00 | 71 | 1020.9 |
| 20260903120434 | 7 | 180 | 0.0 | 0.0 | 0.00 | 0.00 | 0.00 | 72 | 1021.1 |
| 20260903115518 | 7 | 180 | 0.0 | 0.0 | 0.00 | 0.00 | 0.00 | 71 | 1021.1 |
| 20260903114518 | 7 | 180 | 0.0 | 0.0 | 0.00 | 0.00 | 0.00 | 71 | 1021.2 |
| 20260903113617 | 7 | 180 | 0.0 | 0.0 | 0.00 | 0.00 | 0.00 | 71 | 1021.2 |
| 20260903112717 | 7 | 180 | 0.0 | 0.0 | 0.00 | 0.00 | 0.00 | 71 | 1021.2 |
| 20260903111719 | 7 | 180 | 0.0 | 0.0 | 0.00 | 0.00 | 0.00 | 72 | 1021.3 |
| 20260903110817 | 7 | 180 | 0.0 | 0.0 | 0.00 | 0.00 | 0.00 | 72 | 1021.3 |
| 20260903105820 | 7 | 180 | 0.0 | 0.0 | 0.00 | 0.00 | 0.00 | 72 | 1021.3 |
| 20260903104017 | 7 | 180 | 0.0 | 0.0 | 0.00 | 0.00 | 0.00 | 71 | 1021.4 |
| 20260903103018 | 7 | 180 | 0.0 | 0.0 | 0.00 | 0.00 | 0.00 | 70 | 1021.4 |
| 20260903102019 | 7 | 180 | 0.0 | 0.0 | 0.00 | 0.00 | 0.00 | 70 | 1021.6 |
| 20260903100017 | 7 | 180 | 0.0 | 0.0 | 0.00 | 0.00 | 0.00 | 70 | 1021.5 |
| 20260903095018 | 7 | 180 | 0.0 | 0.0 | 0.00 | 0.00 | 0.00 | 70 | 1021.5 |
| 20260903094021 | 8 | 180 | 0.0 | 0.0 | 0.00 | 0.00 | 0.00 | 71 | 1021.5 |
| 20260903093117 | 8 | 180 | 0.0 | 0.0 | 0.00 | 0.00 | 0.00 | 70 | 1021.6 |
| 20260903092121 | 8 | 180 | 0.0 | 0.0 | 0.00 | 0.00 | 0.00 | 70 | 1021.8 |
| 20260903090119 | 8 | 180 | 0.0 | 0.0 | 0.00 | 0.00 | 0.00 | 69 | 1021.8 |
| 20260903085134 | 8 | 180 | 0.0 | 0.0 | 0.00 | 0.00 | 0.00 | 70 | 1021.8 |
| 20260903084219 | 7 | 180 | 0.0 | 0.0 | 0.00 | 0.00 | 0.00 | 71 | 1021.9 |
| 20260903083219 | 7 | 180 | 0.0 | 0.0 | 0.00 | 0.00 | 0.00 | 72 | 1021.9 |
| 20260903082218 | 7 | 180 | 0.0 | 0.0 | 0.00 | 0.00 | 0.00 | 71 | 1022.0 |
| 20260903081219 | 7 | 180 | 0.0 | 0.0 | 0.00 | 0.00 | 0.00 | 72 | 1022.0 |
| 20260903080218 | 7 | 180 | 0.0 | 0.0 | 0.00 | 0.00 | 0.00 | 73 | 1021.9 |
| 20260903075218 | 7 | 180 | 0.0 | 0.0 | 0.00 | 0.00 | 0.00 | 74 | 1021.9 |
| 20260903074317 | 7 | 180 | 0.0 | 0.0 | 0.00 | 0.00 | 0.00 | 74 | 1021.8 |
| 20260903072418 | 7 | 180 | 0.0 | 0.0 | 0.00 | 0.00 | 0.00 | 74 | 1021.9 |
| 20260903071419 | 7 | 180 | 0.0 | 0.0 | 0.00 | 0.00 | 0.00 | 74 | 1021.9 |
| 20260903070517 | 7 | 180 | 0.0 | 0.0 | 0.00 | 0.00 | 0.00 | 74 | 1021.9 |
| 20260903064713 | 7 | 180 | 0.0 | 0.0 | 0.00 | 0.00 | 0.00 | 72 | 1022.0 |
| 20260903063715 | 7 | 180 | 0.0 | 0.0 | 0.00 | 0.00 | 0.00 | 73 | 1022.1 |
| 20260903062716 | 7 | 180 | 0.0 | 0.0 | 0.00 | 0.00 | 0.00 | 71 | 1022.1 |
| 20260903061816 | 7 | 180 | 0.0 | 0.0 | 0.00 | 0.00 | 0.00 | 70 | 1022.1 |
| 20260903060914 | 7 | 180 | 0.0 | 0.0 | 0.00 | 0.00 | 0.00 | 70 | 1022.1 |
| 20260903055916 | 7 | 180 | 0.0 | 0.0 | 0.00 | 0.00 | 0.00 | 69 | 1022.2 |